Weather History for DeKalb, IL

Change the Weather History Date:

Thursday, February 14, 2013

  Actual Average (KARR) Record (KARR)
Temperature  
Mean Temperature 34 °F 24 °F  
Max Temperature 37 °F 33 °F 55 °F (2006)
Min Temperature 30 °F 16 °F -6 °F (2007)
Degree Days  
Heating Degree Days 32 41  
Month to date heating degree days 594  
Since 1 July heating degree days 4611  
Cooling Degree Days 0 0  
Month to date cooling degree days 0  
Year to date cooling degree days 0  
Moisture  
Dew Point 28 °F    
Average Humidity 81    
Maximum Humidity 92    
Minimum Humidity 67    
Precipitation  
Precipitation 0.00 in 0.05 in 0.21 in (2001)
Month to date precipitation 0.68  
Year to date precipitation 2.15  
Sea Level Pressure  
Sea Level Pressure 29.77 in    
Wind  
Wind Speed 13 mph (WSW)    
Max Wind Speed 26 mph    
Max Gust Speed 34 mph    
Visibility 10 miles    
Events      
T = Trace of Precipitation, MM = Missing Value Source: NWS Daily Summary

Daily Weather History Graph

Daily Weather History Graph

Search for Another Location

Airport:

Trip Planner

Search our weather history database for the weather conditions in past years. The results will help you decide how hot, cold, wet, or windy it might be!

Date:

Astronomy

Feb. 14, 2013 Rise Set
Actual Time 6:51 AM CST 5:26 PM CST
Civil Twilight 6:22 AM CST 5:55 PM CST
Nautical Twilight 5:50 AM CST 6:28 PM CST
Astronomical Twilight 5:17 AM CST 7:00 PM CST
Moon 8:48 AM CST (2/14) 10:35 PM CST (2/14)
Length of Visible Light 11h 32m
Length of Day
10h 35m
Waxing Crescent, 22% of the Moon is Illuminated
Feb 14
Waxing Crescent
Feb 17
First Quarter
Feb 25
Full
Mar 4
Last Quarter
Mar 11
New

Hourly Weather History & Observations

Time (CST) Temp. Windchill Dew Point Humidity Pressure Visibility Wind Dir Wind Speed Gust Speed Precip Events Conditions
12:15 AM 32.2 °F 25.0 °F 30.2 °F 92% 29.71 in 7.0 mi South 8.1 mph - N/A   Overcast
12:35 AM 32.5 °F 24.8 °F 30.0 °F 90% 29.71 in 7.0 mi South 9.2 mph - N/A   Overcast
12:55 AM 32.0 °F 23.6 °F 29.7 °F 91% 29.70 in 7.0 mi SSE 10.4 mph - N/A   Overcast
1:15 AM 32.0 °F 25.6 °F 29.3 °F 90% 29.69 in 5.0 mi South 6.9 mph - N/A   Overcast
1:35 AM 32.0 °F 24.8 °F 29.3 °F 90% 29.69 in 7.0 mi South 8.1 mph - N/A   Overcast
1:55 AM 32.0 °F 23.0 °F 29.7 °F 91% 29.68 in 7.0 mi South 11.5 mph - N/A   Overcast
2:15 AM 32.4 °F 24.0 °F 30.0 °F 91% 29.67 in 7.0 mi South 10.4 mph - N/A   Overcast
2:35 AM 32.5 °F 23.7 °F 30.0 °F 90% 29.66 in 7.0 mi South 11.5 mph - N/A   Overcast
2:55 AM 32.5 °F 23.2 °F 30.0 °F 90% 29.65 in 10.0 mi South 12.7 mph - N/A   Overcast
3:15 AM 32.9 °F 24.1 °F 30.2 °F 90% 29.64 in 10.0 mi South 11.5 mph - N/A   Overcast
3:35 AM 32.9 °F 24.1 °F 30.0 °F 89% 29.63 in 10.0 mi South 11.5 mph - N/A   Overcast
3:55 AM 32.9 °F 23.7 °F 30.2 °F 90% 29.64 in 10.0 mi South 12.7 mph - N/A   Overcast
4:15 AM 32.5 °F 23.7 °F 29.7 °F 89% 29.63 in 10.0 mi South 11.5 mph - N/A   Mostly Cloudy
4:35 AM 32.5 °F 23.2 °F 29.7 °F 89% 29.63 in 10.0 mi SSW 12.7 mph - N/A   Clear
4:55 AM 32.5 °F 23.2 °F 29.8 °F 90% 29.63 in 10.0 mi SSW 12.7 mph - N/A   Clear
5:15 AM 32.5 °F 23.7 °F 29.7 °F 89% 29.63 in 10.0 mi SSW 11.5 mph - N/A   Clear
5:35 AM 32.4 °F 23.0 °F 29.7 °F 90% 29.62 in 10.0 mi SSW 12.7 mph - N/A   Clear
5:55 AM 32.9 °F 24.1 °F 29.7 °F 88% 29.63 in 10.0 mi SSW 11.5 mph - N/A   Clear
6:15 AM 33.4 °F 24.8 °F 30.0 °F 87% 29.63 in 10.0 mi SW 11.5 mph - N/A   Clear
6:35 AM 33.8 °F 23.5 °F 30.0 °F 86% 29.64 in 10.0 mi SW 16.1 mph 20.7 mph N/A   Clear
6:55 AM 33.8 °F 23.2 °F 30.2 °F 87% 29.64 in 10.0 mi WSW 17.3 mph - N/A   Mostly Cloudy
7:15 AM 34.2 °F 24.0 °F 30.6 °F 87% 29.64 in 10.0 mi WSW 16.1 mph 19.6 mph N/A   Overcast
7:35 AM 34.3 °F 24.2 °F 30.4 °F 85% 29.65 in 10.0 mi WSW 16.1 mph - N/A   Overcast
7:55 AM 34.0 °F 23.4 °F 30.2 °F 86% 29.66 in 10.0 mi WSW 17.3 mph - N/A   Overcast
8:15 AM 33.8 °F 23.9 °F 30.2 °F 87% 29.66 in 10.0 mi WSW 15.0 mph - N/A   Overcast
8:35 AM 34.0 °F 23.0 °F 30.2 °F 86% 29.67 in 10.0 mi WSW 18.4 mph - N/A   Overcast
8:55 AM 33.8 °F 23.2 °F 30.2 °F 87% 29.67 in 10.0 mi WSW 17.3 mph 21.9 mph N/A   Overcast
9:15 AM 34.0 °F 24.2 °F 30.0 °F 85% 29.67 in 10.0 mi West 15.0 mph 24.2 mph N/A   Overcast
9:35 AM 34.2 °F 24.4 °F 30.2 °F 85% 29.67 in 10.0 mi WSW 15.0 mph - N/A   Overcast
9:55 AM 35.1 °F 25.9 °F 30.6 °F 84% 29.68 in 10.0 mi WSW 13.8 mph 26.5 mph N/A   Overcast
10:15 AM 35.1 °F 24.5 °F 29.7 °F 81% 29.69 in 10.0 mi West 18.4 mph 24.2 mph N/A   Overcast
10:35 AM 35.1 °F 24.8 °F 30.0 °F 82% 29.69 in 10.0 mi West 17.3 mph 24.2 mph N/A   Overcast
10:55 AM 35.1 °F 24.1 °F 30.2 °F 82% 29.70 in 10.0 mi West 19.6 mph 25.3 mph N/A   Overcast
11:15 AM 35.1 °F 24.5 °F 30.2 °F 82% 29.71 in 10.0 mi West 18.4 mph 25.3 mph N/A   Overcast
11:35 AM 35.1 °F 24.8 °F 30.6 °F 84% 29.72 in 10.0 mi West 17.3 mph 23.0 mph N/A   Overcast
11:55 AM 35.1 °F 24.1 °F 30.4 °F 83% 29.72 in 10.0 mi West 19.6 mph 25.3 mph N/A   Overcast
12:15 PM 35.1 °F 25.2 °F 30.4 °F 83% 29.73 in 10.0 mi West 16.1 mph 23.0 mph N/A   Overcast
12:35 PM 35.1 °F 24.1 °F 30.0 °F 82% 29.74 in 10.0 mi West 19.6 mph 27.6 mph N/A   Overcast
12:55 PM 35.1 °F 23.5 °F 29.7 °F 81% 29.75 in 10.0 mi West 21.9 mph 28.8 mph N/A   Overcast
1:15 PM 35.1 °F 24.5 °F 29.1 °F 79% 29.75 in 10.0 mi WNW 18.4 mph 28.8 mph N/A   Overcast
1:35 PM 35.4 °F 23.7 °F 29.1 °F 78% 29.76 in 10.0 mi WNW 23.0 mph 27.6 mph N/A   Overcast
1:55 PM 35.8 °F 24.8 °F 28.9 °F 76% 29.77 in 10.0 mi WNW 20.7 mph 26.5 mph N/A   Overcast
2:15 PM 36.5 °F 25.2 °F 28.6 °F 73% 29.79 in 10.0 mi West 23.0 mph 28.8 mph N/A   Overcast
2:35 PM 37.0 °F 26.2 °F 28.4 °F 71% 29.80 in 10.0 mi WNW 21.9 mph 28.8 mph N/A   Overcast
2:55 PM 36.0 °F 23.7 °F 26.4 °F 68% 29.81 in 10.0 mi WNW 26.5 mph 34.5 mph N/A   Scattered Clouds
3:15 PM 35.1 °F 23.3 °F 26.2 °F 70% 29.83 in 10.0 mi WNW 23.0 mph 29.9 mph N/A   Mostly Cloudy
3:35 PM 34.2 °F 22.1 °F 24.3 °F 67% 29.84 in 10.0 mi WNW 23.0 mph 29.9 mph N/A   Overcast
3:55 PM 33.8 °F 21.6 °F 24.1 °F 68% 29.84 in 10.0 mi WNW 23.0 mph 29.9 mph N/A   Overcast
4:15 PM 34.7 °F 25.1 °F 25.0 °F 68% 29.86 in 10.0 mi WNW 15.0 mph 20.7 mph N/A   Overcast
4:35 PM 33.3 °F 24.1 °F 23.4 °F 67% 29.87 in 10.0 mi NW 12.7 mph 21.9 mph N/A   Overcast
4:55 PM 33.1 °F 23.0 °F 23.4 °F 67% 29.88 in 10.0 mi WNW 15.0 mph 19.6 mph N/A   Mostly Cloudy
5:15 PM 32.9 °F 22.8 °F 24.1 °F 70% 29.90 in 10.0 mi WNW 15.0 mph - N/A   Overcast
5:35 PM 32.7 °F 23.0 °F 24.6 °F 72% 29.91 in 10.0 mi WNW 13.8 mph - N/A   Overcast
5:55 PM 32.4 °F 24.0 °F 25.7 °F 76% 29.92 in 10.0 mi WNW 10.4 mph - N/A   Overcast
6:15 PM 32.0 °F 24.2 °F 25.2 °F 76% 29.93 in 10.0 mi WNW 9.2 mph - N/A   Overcast
6:35 PM 32.0 °F 23.6 °F 24.8 °F 75% 29.93 in 10.0 mi WNW 10.4 mph 16.1 mph N/A   Mostly Cloudy
6:55 PM 32.0 °F 23.6 °F 25.2 °F 76% 29.94 in 10.0 mi WNW 10.4 mph - N/A   Overcast
7:15 PM 32.0 °F 23.0 °F 24.6 °F 74% 29.94 in 10.0 mi WNW 11.5 mph - N/A   Overcast
7:35 PM 32.0 °F 23.6 °F 24.3 °F 73% 29.94 in 10.0 mi WNW 10.4 mph - N/A   Overcast
7:55 PM 31.1 °F 25.4 °F 24.3 °F 76% 29.94 in 10.0 mi West 5.8 mph - N/A   Mostly Cloudy
8:15 PM 30.6 °F 24.7 °F 24.3 °F 77% 29.94 in 10.0 mi West 5.8 mph - N/A   Mostly Cloudy
8:35 PM 31.1 °F 24.5 °F 24.6 °F 77% 29.95 in 10.0 mi West 6.9 mph - N/A   Overcast
8:55 PM 31.6 °F 25.1 °F 25.3 °F 78% 29.95 in 10.0 mi West 6.9 mph - N/A   Overcast
9:15 PM 31.8 °F 25.4 °F 25.2 °F 76% 29.95 in 10.0 mi West 6.9 mph - N/A   Overcast
9:35 PM 31.6 °F 25.1 °F 25.7 °F 79% 29.96 in 10.0 mi West 6.9 mph - N/A   Overcast
9:55 PM 31.6 °F 24.4 °F 25.7 °F 79% 29.96 in 10.0 mi West 8.1 mph - N/A   Overcast
10:15 PM 31.8 °F 25.4 °F 25.7 °F 78% 29.96 in 10.0 mi West 6.9 mph - N/A   Overcast
10:35 PM 31.6 °F 26.0 °F 26.2 °F 80% 29.96 in 10.0 mi NW 5.8 mph - N/A   Overcast
10:55 PM 31.1 °F 25.4 °F 25.2 °F 79% 29.96 in 10.0 mi NNW 5.8 mph - N/A   Overcast
11:15 PM 30.9 °F 26.2 °F 24.8 °F 78% 29.96 in 10.0 mi NW 4.6 mph - N/A   Overcast
11:35 PM 30.7 °F 26.0 °F 25.0 °F 79% 29.96 in 10.0 mi WNW 4.6 mph - N/A   Overcast
11:55 PM 30.2 °F 25.4 °F 25.2 °F 82% 29.97 in 10.0 mi NW 4.6 mph - N/A   Overcast